| time (UTC) | temp F | wind direction | speed knots | gust knots | rain 1hr in | rain 24hr in | rain mn in | humidity % | barometer mb |
| 20260506073412 | 55 | 210 | 13.9 | 25.2 | 0.00 | 0.00 | 0.00 | 87 | 298.7 |
| 20260506073334 | 55 | 210 | 13.9 | 25.2 | 0.00 | 0.00 | 0.00 | 87 | 298.7 |
| 20260506071834 | 55 | 210 | 13.9 | 25.2 | 0.00 | 0.00 | 0.00 | 87 | 298.7 |
| 20260506070332 | 55 | 210 | 13.9 | 25.2 | 0.00 | 0.00 | 0.00 | 87 | 298.7 |
| 20260506061834 | 57 | 210 | 19.1 | 26.1 | 0.00 | 0.00 | 0.00 | 83 | 298.6 |
| 20260506060336 | 57 | 210 | 19.1 | 26.1 | 0.00 | 0.00 | 0.00 | 83 | 298.6 |
| 20260506050333 | 57 | 210 | 13.0 | 21.7 | 0.00 | 0.00 | 0.00 | 81 | 298.7 |
| 20260506044833 | 57 | 210 | 20.9 | 30.4 | 0.00 | 0.00 | 0.00 | 81 | 298.7 |
| 20260506042012 | 57 | 210 | 20.9 | 30.4 | 0.00 | 0.00 | 0.00 | 81 | 298.7 |
| 20260506041832 | 57 | 210 | 20.9 | 30.4 | 0.00 | 0.00 | 0.00 | 81 | 298.7 |
| 20260506040333 | 57 | 210 | 20.9 | 30.4 | 0.00 | 0.00 | 0.00 | 81 | 298.7 |
| 20260506034832 | 59 | 200 | 20.0 | 28.7 | 0.00 | 0.00 | 0.00 | 77 | 298.7 |
| 20260506033333 | 59 | 200 | 20.0 | 28.7 | 0.00 | 0.00 | 0.00 | 77 | 298.7 |
| 20260506031833 | 59 | 200 | 20.0 | 28.7 | 0.00 | 0.00 | 0.00 | 77 | 298.7 |
| 20260506030417 | 59 | 200 | 20.0 | 28.7 | 0.00 | 0.00 | 0.00 | 77 | 298.7 |
| 20260506030333 | 59 | 200 | 20.0 | 28.7 | 0.00 | 0.00 | 0.00 | 77 | 298.7 |
| 20260506024834 | 60 | 200 | 18.2 | 31.3 | 0.00 | 0.00 | 0.00 | 72 | 298.7 |
| 20260506023334 | 60 | 200 | 18.2 | 31.3 | 0.00 | 0.00 | 0.00 | 72 | 298.7 |
| 20260506021834 | 60 | 200 | 18.2 | 31.3 | 0.00 | 0.00 | 0.00 | 72 | 298.7 |
| 20260506020333 | 60 | 200 | 18.2 | 31.3 | 0.00 | 0.00 | 0.00 | 72 | 298.7 |
| 20260506014833 | 60 | 210 | 17.4 | 28.7 | 0.00 | 0.00 | 0.00 | 70 | 298.5 |
| 20260506013333 | 60 | 210 | 17.4 | 28.7 | 0.00 | 0.00 | 0.00 | 70 | 298.5 |
| 20260506011833 | 60 | 210 | 17.4 | 28.7 | 0.00 | 0.00 | 0.00 | 70 | 298.5 |
| 20260506010335 | 60 | 210 | 17.4 | 28.7 | 0.00 | 0.00 | 0.00 | 70 | 298.5 |
| 20260506004832 | 62 | 200 | 17.4 | 30.4 | 0.00 | 0.00 | 0.00 | 67 | 298.3 |
| 20260506003333 | 62 | 200 | 17.4 | 30.4 | 0.00 | 0.00 | 0.00 | 67 | 298.3 |
| 20260506000333 | 62 | 200 | 17.4 | 30.4 | 0.00 | 0.00 | 0.00 | 67 | 298.3 |
| 20260505234834 | 62 | 200 | 20.9 | 32.2 | 0.00 | 0.00 | 0.00 | 65 | 298.1 |
| 20260505233333 | 62 | 200 | 20.9 | 32.2 | 0.00 | 0.00 | 0.00 | 65 | 298.1 |
| 20260505231833 | 62 | 200 | 20.9 | 32.2 | 0.00 | 0.00 | 0.00 | 65 | 298.1 |
| 20260505230440 | 62 | 200 | 20.9 | 32.2 | 0.00 | 0.00 | 0.00 | 65 | 298.1 |
| 20260505230333 | 62 | 200 | 20.9 | 32.2 | 0.00 | 0.00 | 0.00 | 65 | 298.1 |
| 20260505224833 | 64 | 210 | 22.6 | 39.1 | 0.00 | 0.00 | 0.00 | 63 | 298.0 |
| 20260505223333 | 64 | 210 | 22.6 | 39.1 | 0.00 | 0.00 | 0.00 | 63 | 298.0 |
| 20260505221834 | 64 | 210 | 22.6 | 39.1 | 0.00 | 0.00 | 0.00 | 63 | 298.0 |
| 20260505220333 | 64 | 210 | 22.6 | 39.1 | 0.00 | 0.00 | 0.00 | 63 | 298.0 |
| 20260505213334 | 64 | 200 | 20.0 | 31.3 | 0.00 | 0.00 | 0.00 | 61 | 297.9 |
| 20260505211834 | 64 | 200 | 20.0 | 31.3 | 0.00 | 0.00 | 0.00 | 61 | 297.9 |
| 20260505210333 | 64 | 200 | 20.0 | 31.3 | 0.00 | 0.00 | 0.00 | 61 | 297.9 |
| 20260505204833 | 64 | 190 | 20.0 | 27.8 | 0.00 | 0.00 | 0.00 | 63 | 298.0 |
| 20260505203426 | 64 | 190 | 20.0 | 27.8 | 0.00 | 0.00 | 0.00 | 63 | 298.0 |
| 20260505203334 | 64 | 190 | 20.0 | 27.8 | 0.00 | 0.00 | 0.00 | 63 | 298.0 |
| 20260505201833 | 64 | 190 | 20.0 | 27.8 | 0.00 | 0.00 | 0.00 | 63 | 298.0 |
| 20260505200334 | 64 | 190 | 20.0 | 27.8 | 0.00 | 0.00 | 0.00 | 63 | 298.0 |
| 20260505194834 | 64 | 190 | 13.0 | 20.0 | 0.00 | 0.00 | 0.00 | 65 | 298.4 |
| 20260505193334 | 64 | 190 | 13.0 | 20.0 | 0.00 | 0.00 | 0.00 | 65 | 298.4 |
| 20260505191833 | 64 | 190 | 13.0 | 20.0 | 0.00 | 0.00 | 0.00 | 65 | 298.4 |
| 20260505190333 | 64 | 190 | 13.0 | 20.0 | 0.00 | 0.00 | 0.00 | 65 | 298.4 |
| 20260505184835 | 64 | 190 | 13.0 | 0.0 | 0.00 | 0.00 | 0.00 | 68 | 298.5 |
| 20260505183333 | 64 | 190 | 13.0 | 0.0 | 0.00 | 0.00 | 0.00 | 68 | 298.5 |
| 20260505181941 | 64 | 190 | 13.0 | 0.0 | 0.00 | 0.00 | 0.00 | 68 | 298.5 |
| 20260505181833 | 64 | 190 | 13.0 | 0.0 | 0.00 | 0.00 | 0.00 | 68 | 298.5 |
| 20260505180334 | 64 | 190 | 13.0 | 0.0 | 0.00 | 0.00 | 0.00 | 68 | 298.5 |
| 20260505174834 | 64 | 190 | 13.0 | 0.0 | 0.00 | 0.00 | 0.00 | 67 | 298.6 |
| 20260505173332 | 64 | 190 | 13.0 | 0.0 | 0.00 | 0.00 | 0.00 | 67 | 298.6 |
| 20260505171834 | 64 | 190 | 13.0 | 0.0 | 0.00 | 0.00 | 0.00 | 67 | 298.6 |
| 20260505170419 | 64 | 190 | 13.0 | 0.0 | 0.00 | 0.00 | 0.00 | 67 | 298.6 |
| 20260505170333 | 64 | 190 | 13.0 | 0.0 | 0.00 | 0.00 | 0.00 | 67 | 298.6 |
| 20260505164904 | 66 | 180 | 10.4 | 0.0 | 0.00 | 0.00 | 0.00 | 65 | 298.8 |
| 20260505164833 | 66 | 180 | 10.4 | 0.0 | 0.00 | 0.00 | 0.00 | 65 | 298.8 |
| 20260505163334 | 66 | 180 | 10.4 | 0.0 | 0.00 | 0.00 | 0.00 | 65 | 298.8 |
| 20260505161906 | 66 | 180 | 10.4 | 0.0 | 0.00 | 0.00 | 0.00 | 65 | 298.8 |
| 20260505161833 | 66 | 180 | 10.4 | 0.0 | 0.00 | 0.00 | 0.00 | 65 | 298.8 |
| 20260505160430 | 66 | 180 | 10.4 | 0.0 | 0.00 | 0.00 | 0.00 | 65 | 298.8 |
| 20260505160333 | 66 | 180 | 10.4 | 0.0 | 0.00 | 0.00 | 0.00 | 65 | 298.8 |
| 20260505153333 | 64 | 180 | 8.7 | 0.0 | 0.00 | 0.00 | 0.00 | 70 | 298.9 |
| 20260505151834 | 64 | 180 | 8.7 | 0.0 | 0.00 | 0.00 | 0.00 | 70 | 298.9 |
| 20260505150332 | 64 | 180 | 8.7 | 0.0 | 0.00 | 0.00 | 0.00 | 70 | 298.9 |
| 20260505140411 | 62 | 190 | 10.4 | 0.0 | 0.00 | 0.00 | 0.00 | 70 | 298.8 |
| 20260505140333 | 62 | 190 | 10.4 | 0.0 | 0.00 | 0.00 | 0.00 | 70 | 298.8 |
| 20260505124833 | 57 | 190 | 5.2 | 0.0 | 0.00 | 0.00 | 0.00 | 83 | 298.8 |
| 20260505123333 | 57 | 190 | 5.2 | 0.0 | 0.00 | 0.00 | 0.00 | 83 | 298.8 |
| 20260505121832 | 57 | 190 | 5.2 | 0.0 | 0.00 | 0.00 | 0.00 | 83 | 298.8 |
| 20260505120425 | 57 | 190 | 5.2 | 0.0 | 0.00 | 0.00 | 0.00 | 83 | 298.8 |
| 20260505120333 | 57 | 190 | 5.2 | 0.0 | 0.00 | 0.00 | 0.00 | 83 | 298.8 |
| 20260505114834 | 55 | 240 | 4.3 | 0.0 | 0.00 | 0.00 | 0.00 | 86 | 298.8 |
| 20260505113332 | 55 | 240 | 4.3 | 0.0 | 0.00 | 0.00 | 0.00 | 86 | 298.8 |
| 20260505111834 | 55 | 240 | 4.3 | 0.0 | 0.00 | 0.00 | 0.00 | 86 | 298.8 |
| 20260505110332 | 55 | 240 | 4.3 | 0.0 | 0.00 | 0.00 | 0.00 | 86 | 298.8 |
| 20260505101915 | 53 | 190 | 6.1 | 0.0 | 0.00 | 0.00 | 0.00 | 89 | 298.5 |
| 20260505101833 | 53 | 190 | 6.1 | 0.0 | 0.00 | 0.00 | 0.00 | 89 | 298.5 |
| 20260505100500 | 53 | 210 | 6.1 | 0.0 | 0.00 | 0.00 | 0.00 | 93 | 298.5 |
| 20260505100333 | 53 | 210 | 6.1 | 0.0 | 0.00 | 0.00 | 0.00 | 93 | 298.5 |
| 20260505094833 | 53 | 210 | 6.1 | 0.0 | 0.00 | 0.00 | 0.00 | 93 | 298.5 |
| 20260505093333 | 53 | 210 | 6.1 | 0.0 | 0.00 | 0.00 | 0.00 | 93 | 298.5 |
| 20260505091924 | 53 | 210 | 6.1 | 0.0 | 0.00 | 0.00 | 0.00 | 93 | 298.5 |
| 20260505091833 | 53 | 210 | 6.1 | 0.0 | 0.00 | 0.00 | 0.00 | 93 | 298.5 |
| 20260505090333 | 53 | 210 | 6.1 | 0.0 | 0.00 | 0.00 | 0.00 | 93 | 298.5 |
| 20260505084835 | 53 | 200 | 7.0 | 0.0 | 0.00 | 0.00 | 0.00 | 89 | 298.5 |
| 20260505081837 | 53 | 200 | 7.0 | 0.0 | 0.00 | 0.00 | 0.00 | 89 | 298.5 |